Flag for Spain Weather past 2 weeks in Las Palmas, Canary Islands, Spain

Now
72 °F

Passing clouds.


Feels Like: 71 °F
Forecast: 75 / 80 °F
Wind: 9 mph from Northwest

Location: Las Palmas De Gran Canaria / Gando

Current Time: Sep 19, 2014 at 1:57:45 AM

Latest Report: Sep 19, 2014 at 1:00 AM


Visibility: N/A

Pressure: 30.01 "Hg

Humidity: 83%

Dew point: 66 °F

Location of Las PalmasLocation

Historic Weather in Las Palmas — Graph

°F

Las Palmas temperature yesterday

Maximum temperature yesterday: 84 °F (at 12:30 PM)
Minimum temperature yesterday: 72 °F (at 4:00 AM)
Average temperature yesterday: 77 °F

Past Weeks' High & Low Weather Summary

 TemperatureHumidityPressure
High84 °F (Sep 7, 12:00 PM)89% (Sep 4, 4:30 AM)30.12 "Hg (Sep 4, 4:30 AM)
Low72 °F (Sep 4, 8:00 AM)48% (Sep 18, 12:30 PM)29.89 "Hg (Sep 16, 4:30 AM)
Average78 °F73%30.01 "Hg
* Reported Midnight between Sep 3 and Sep 4 — Sep 19 12:30 AM, Las Palmas, Weather by CustomWeather, © 2014

Note: Actual official high and low records may vary slightly from our data, if they occured in-between our weather recording intervals... More about our weather records

Advertising

Las Palmas weather history for previous 24 hours

 ConditionsComfort  
Time TempWeatherWind HumidityBarometerVisibility
12:30 AM
Sep 19
73 °FPassing clouds.9 mph74%30.01 "HgN/A
12:00 AM75 °FPassing clouds.10 mph69%30.01 "HgN/A
11:30 PM
Sep 18
75 °FPassing clouds.9 mph74%30.01 "HgN/A
11:00 PM75 °FPassing clouds.9 mph69%30.04 "HgN/A
10:30 PM75 °FPassing clouds.5 mph69%30.01 "HgN/A
10:00 PM77 °FPassing clouds.10 mph65%30.01 "HgN/A
9:30 PM77 °FPassing clouds.15 mph65%30.01 "HgN/A
9:00 PM77 °FPartly sunny.14 mph65%29.98 "HgN/A
8:30 PM77 °FPartly sunny.13 mph65%29.98 "HgN/A
8:00 PM77 °FScattered clouds.14 mph65%29.98 "HgN/A
7:30 PM77 °FPartly sunny.14 mph65%29.98 "HgN/A
7:00 PM79 °FPartly sunny.14 mph61%29.95 "HgN/A
6:30 PM79 °FPartly sunny.13 mph65%29.95 "HgN/A
6:00 PM79 °FPartly sunny.15 mph61%29.95 "HgN/A
5:30 PM79 °FPartly sunny.16 mph61%29.95 "HgN/A
5:00 PM81 °FPartly sunny.18 mph58%29.95 "HgN/A
4:30 PM81 °FPartly sunny.18 mph58%29.95 "HgN/A
4:00 PM81 °FPartly sunny.18 mph54%29.95 "HgN/A
3:30 PM81 °FPartly sunny.22 mph54%29.95 "HgN/A
3:00 PM81 °FPartly sunny.22 mph54%29.95 "HgN/A
2:30 PM84 °FScattered clouds.22 mph51%29.95 "HgN/A
2:00 PM84 °FScattered clouds.21 mph48%29.98 "HgN/A
1:30 PM82 °FScattered clouds.17 mph48%29.98 "HgN/A
1:00 PM82 °FScattered clouds.21 mph55%29.98 "HgN/A
12:30 PM84 °FPassing clouds.16 mph48%29.98 "HgN/A
12:00 PM82 °FScattered clouds.17 mph51%30.01 "HgN/A
11:30 AM81 °FScattered clouds.16 mph54%30.01 "HgN/A
11:00 AM77 °FScattered clouds.13 mph65%30.01 "HgN/A
10:30 AM77 °FPartly sunny.14 mph65%30.01 "HgN/A
10:00 AM77 °FPartly sunny.13 mph65%29.98 "HgN/A
9:30 AM77 °FScattered clouds.7 mph65%29.98 "HgN/A
9:00 AM75 °FPartly sunny.8 mph69%29.98 "HgN/A
8:30 AM73 °FPassing clouds.2 mph69%29.98 "HgN/A
8:00 AM72 °FPassing clouds.2 mph73%29.95 "HgN/A
7:30 AM75 °FPassing clouds.6 mph69%29.95 "HgN/A
7:00 AM72 °FPassing clouds.3 mph73%29.95 "HgN/A
6:30 AM72 °FPassing clouds.5 mph73%29.95 "HgN/A
6:00 AM73 °FPassing clouds.3 mph74%29.95 "HgN/A
5:30 AM73 °FPassing clouds.7 mph74%29.95 "HgN/A
5:00 AM73 °FPassing clouds.2 mph78%29.95 "HgN/A
4:30 AM72 °FPassing clouds.No wind88%29.95 "HgN/A
4:00 AM72 °FPassing clouds.13 mph88%29.95 "HgN/A
3:30 AM73 °FPassing clouds.12 mph83%29.95 "HgN/A
3:00 AM75 °FPassing clouds.6 mph74%29.98 "HgN/A
2:30 AM75 °FPassing clouds.3 mph74%29.98 "HgN/A
2:00 AM75 °FPassing clouds.5 mph74%29.98 "HgN/A
1:30 AM75 °FPassing clouds.3 mph65%29.98 "HgN/A
1:00 AM75 °FPassing clouds.3 mph65%29.98 "HgN/A
Weather by CustomWeather, © 2014

See weather overviewHow to use our weather pages